Flag for U.S.A. Weather past 2 weeks in Long Beach, California, U.S.A.

Now
78 °F

Sunny.


Feels Like: 80 °F
Forecast: 67 / 83 °F
Wind: 13 mph from Northwest

Location: Long Beach Airport

Current Time: Jul 28, 2015 at 7:38:37 PM

Latest Report: Jul 28, 2015 at 6:53 PM


Visibility: 10 mi

Pressure: 29.83 "Hg

Humidity: 60%

Dew point: 63 °F

Location of Long BeachLocation

Historic Weather in Long Beach — Graph

°F

Long Beach temperature yesterday

Maximum temperature yesterday: 77 °F (at 12:53 PM)
Minimum temperature yesterday: 70 °F (at 12:53 AM)
Average temperature yesterday: 73 °F

Past Weeks' High & Low Weather Summary

 TemperatureHumidityPressure
High88 °F (Jul 18, 11:53 AM)91% (Jul 20, 9:53 PM)30.08 "Hg (Jul 20, 9:53 PM)
Low66 °F (Jul 14, 3:53 AM)33% (Jul 18, 11:53 AM)29.78 "Hg (Jul 17, 5:53 PM)
Average74 °F70%29.92 "Hg
* Reported Jul 13 5:53 PM — Jul 28 5:53 PM, Long Beach, Weather by CustomWeather, © 2015

Note: Actual official high and low records may vary slightly from our data, if they occured in-between our weather recording intervals... More about our weather records

Advertising

Long Beach weather history for previous 24 hours

 ConditionsComfort  
Time TempWeatherWind HumidityBarometerVisibility
5:53 PM
Tue, Jul 28
80 °FSunny.10 mph56%29.83 "Hg10 mi
4:53 PM83 °FSunny.12 mph51%29.83 "Hg10 mi
3:53 PM81 °FSunny.9 mph54%29.83 "Hg10 mi
2:53 PM78 °FSunny.12 mph58%29.86 "Hg10 mi
1:53 PM77 °FSunny.9 mph60%29.87 "Hg10 mi
12:53 PM77 °FSunny.7 mph60%29.89 "Hg10 mi
11:53 AM76 °FSunny.9 mph62%29.90 "Hg10 mi
10:53 AM77 °FSunny.7 mph60%29.90 "Hg10 mi
9:53 AM76 °FSunny.5 mph62%29.90 "Hg10 mi
8:53 AM73 °FScattered clouds.5 mph66%29.91 "Hg10 mi
7:53 AM71 °FPartly sunny.No wind71%29.90 "Hg10 mi
6:53 AM70 °FOvercast.3 mph73%29.89 "Hg10 mi
5:53 AM70 °FOvercast.5 mph73%29.88 "Hg10 mi
4:53 AM70 °FOvercast.3 mph79%29.88 "Hg9 mi
4:00 AM70 °FOvercast.3 mph76%29.87 "Hg9 mi
2:53 AM70 °FOvercast.No wind79%29.87 "Hg10 mi
1:53 AM69 °FOvercast.No wind81%29.88 "Hg10 mi
12:53 AM69 °FPassing clouds.3 mph81%29.89 "Hg10 mi
11:53 PM
Mon, Jul 27
70 °FClear.6 mph79%29.89 "Hg10 mi
10:53 PM70 °FClear.7 mph79%29.90 "Hg10 mi
9:53 PM71 °FClear.7 mph78%29.90 "Hg10 mi
8:53 PM73 °FSunny.9 mph74%29.88 "Hg10 mi
7:53 PM74 °FSunny.12 mph69%29.87 "Hg10 mi
Weather by CustomWeather, © 2015

See weather overviewHow to use our weather pages